Evenes, Norway

4:42 PM CET on February 25, 2018 (GMT +0100)
Evenes

Weather History for ENEV - February, 2018

Change the Weather History Date:

Wednesday, February 14, 2018

  Actual Average Record
Temperature  
Mean Temperature 28 °F -  
Max Temperature 33 °F 29 °F 42 °F (2001)
Min Temperature 23 °F 19 °F -2 °F (2005)
Degree Days  
Heating Degree Days 37    
Moisture  
Dew Point 16 °F    
Average Humidity 55    
Maximum Humidity 69    
Minimum Humidity 40    
Precipitation  
Precipitation 0.00 in - - ()
Sea Level Pressure  
Sea Level Pressure 29.81 in    
Wind  
Wind Speed 11 mph ()    
Max Wind Speed 16 mph    
Max Gust Speed -    
Visibility 6.2 miles    
Events      
Averages and records for this station are not official NWS values.
T = Trace of Precipitation, MM = Missing Value Source: Averaged Metar Reports

Daily Weather History Graph

Daily Weather History Graph

Search for Another Location

Airport or City:

Trip Planner

Search our weather history database for the weather conditions in past years. The results will help you decide how hot, cold, wet, or windy it might be!

Date:

Astronomy

Feb. 14, 2018 Rise Set
Actual Time 8:19 AM CET 3:56 PM CET
Civil Twilight 7:16 AM CET 5:00 PM CET
Nautical Twilight 6:08 AM CET 6:07 PM CET
Astronomical Twilight 5:03 AM CET 7:13 PM CET
Moon 8:34 AM CET (2/14) 1:39 PM CET (2/14)
Length of Visible Light 9h 44m
Length of Day
7h 36m
Waning Crescent, 2% of the Moon is Illuminated
Feb 14
Waning Crescent
Feb 15
New
Feb 23
First Quarter
Mar 2
Full
Mar 9
Last Quarter

Hourly Weather History & Observations

Time (CET) Temp. Windchill Dew Point Humidity Pressure Visibility Wind Dir Wind Speed Gust Speed Precip Events Conditions
12:20 AM 28.4 °F 17.5 °F 15.8 °F 59% 29.77 in 6.2 mi SE 13.8 mph - N/A   Unknown
12:50 AM 28.4 °F 17.0 °F 15.8 °F 59% 29.77 in 6.2 mi SE 15.0 mph - N/A   Unknown
1:00 AM 29 °F - 17 °F 49% 29.78 in - SE 15.7 mph - -  
1:20 AM 30.2 °F 19.3 °F 15.8 °F 55% 29.77 in 6.2 mi SE 15.0 mph - N/A   Unknown
1:50 AM 28.4 °F 18.0 °F 15.8 °F 59% 29.77 in 6.2 mi SE 12.7 mph - N/A   Unknown
2:00 AM 29 °F - 17 °F 48% 29.78 in - ESE 13.4 mph - -  
2:20 AM 26.6 °F 16.2 °F 14.0 °F 59% 29.77 in 6.2 mi SE 11.5 mph - N/A   Unknown
2:50 AM 30.2 °F 19.3 °F 15.8 °F 55% 29.77 in 6.2 mi ESE 15.0 mph - N/A   Unknown
3:00 AM 29 °F - 17 °F 48% 29.78 in - SE 13.4 mph - -  
3:20 AM 28.4 °F 17.0 °F 14.0 °F 55% 29.77 in 6.2 mi SE 15.0 mph - N/A   Unknown
3:50 AM 26.6 °F 15.2 °F 15.8 °F 64% 29.77 in 6.2 mi SE 13.8 mph - N/A   Unknown
4:00 AM 26 °F - 16 °F 53% 29.79 in - South 8.9 mph - -  
4:20 AM 28.4 °F 17.5 °F 15.8 °F 59% 29.77 in 6.2 mi SE 13.8 mph - N/A   Unknown
4:50 AM 28.4 °F 18.0 °F 14.0 °F 55% 29.77 in 6.2 mi SE 12.7 mph - N/A   Unknown
5:00 AM 29 °F - 17 °F 47% 29.79 in - SE 11.2 mph - -  
5:20 AM 26.6 °F 16.8 °F 14.0 °F 59% 29.77 in 6.2 mi SSE 10.4 mph - N/A   Unknown
5:50 AM 28.4 °F 21.2 °F 15.8 °F 59% 29.77 in - South 6.9 mph - N/A   Clear
6:00 AM 29 °F - 17 °F 47% 29.78 in - SSE 8.9 mph - -  
6:50 AM 30.2 °F 19.8 °F 15.8 °F 55% 29.77 in - SE 13.8 mph - N/A   Clear
7:00 AM 30 °F - 18 °F 47% 29.78 in - SE 11.2 mph - -  
7:50 AM 30.2 °F 21.9 °F 15.8 °F 55% 29.77 in - SSE 9.2 mph - N/A   Clear
8:50 AM 30.2 °F 20.2 °F 15.8 °F 55% 29.77 in - SE 12.7 mph - N/A   Clear
9:00 AM 29 °F - 17 °F 48% 29.79 in - SSE 11.2 mph - -  
9:50 AM 30.2 °F 21.9 °F 15.8 °F 55% 29.77 in - SSE 9.2 mph - N/A   Clear
10:00 AM 31 °F - 18 °F 47% 29.79 in - SSE 8.9 mph - -  
10:50 AM 32.0 °F 22.1 °F 17.6 °F 55% 29.77 in - SE 13.8 mph - N/A   Clear
11:00 AM 32 °F - 19 °F 45% 29.79 in - SE 13.4 mph - -  
11:50 AM 32.0 °F 21.6 °F 17.6 °F 55% 29.77 in - SE 15.0 mph - N/A   Clear
12:20 PM 32.0 °F 21.6 °F 17.6 °F 55% 29.77 in - ESE 15.0 mph - N/A   Clear
12:50 PM 33.8 °F 24.3 °F 17.6 °F 52% 29.77 in - SE 13.8 mph - N/A   Clear
1:00 PM 33 °F - 18 °F 40% 29.79 in - SE 11.2 mph - -  
1:50 PM 32.0 °F 22.1 °F 17.6 °F 55% 29.77 in - ESE 13.8 mph - N/A   Clear
2:50 PM 32.0 °F 23.0 °F 17.6 °F 55% 29.80 in - SE 11.5 mph - N/A   Clear
3:00 PM 32 °F - 18 °F 42% 29.81 in - SSE 6.7 mph - -  
3:20 PM 32.0 °F 25.6 °F 17.6 °F 55% 29.80 in - South 6.9 mph - N/A   Clear
3:50 PM 32.0 °F 26.4 °F 19.4 °F 60% 29.80 in - South 5.8 mph - N/A   Clear
4:00 PM 30 °F - 17 °F 47% 29.84 in - SSE 8.9 mph - -  
4:20 PM 28.4 °F 20.4 °F 17.6 °F 64% 29.83 in - South 8.1 mph - N/A   Clear
4:50 PM 28.4 °F 21.2 °F 15.8 °F 59% 29.83 in - South 6.9 mph - N/A   Clear
5:00 PM 28 °F - 19 °F 57% 29.86 in - South 8.9 mph - -  
5:50 PM 26.6 °F 22.6 °F 17.6 °F 69% 29.83 in - South 3.5 mph - N/A   Clear
6:00 PM 23 °F - 16 °F 64% 29.86 in - SW 6.7 mph - -  
6:50 PM 24.8 °F 16.9 °F 15.8 °F 69% 29.86 in - SSE 6.9 mph - N/A   Clear
7:00 PM 30 °F - 19 °F 53% 29.86 in - South 6.7 mph - -  
7:50 PM 30.2 °F 23.4 °F 17.6 °F 60% 29.86 in - South 6.9 mph - N/A   Clear
8:50 PM 28.4 °F 21.2 °F 15.8 °F 59% 29.86 in - SE 6.9 mph - N/A   Clear
9:00 PM 29 °F - 17 °F 49% 29.88 in - SSW 6.7 mph - -  
9:50 PM 28.4 °F 20.4 °F 15.8 °F 59% 29.86 in 6.2 mi South 8.1 mph - N/A   Partly Cloudy
10:00 PM 28 °F - 17 °F 50% 29.89 in - SSE 8.9 mph - -  
10:50 PM 28.4 °F 21.2 °F 14.0 °F 55% 29.86 in - South 6.9 mph - N/A   Clear
11:00 PM 27 °F - 15 °F 48% 29.89 in - SSE 11.2 mph - -  
11:20 PM 28.4 °F 19.1 °F 14.0 °F 55% 29.89 in 6.2 mi South 10.4 mph - N/A   Unknown
11:50 PM 26.6 °F 18.2 °F 12.2 °F 55% 29.89 in 6.2 mi SSE 8.1 mph - N/A   Unknown